Flag for United Kingdom Weather past 2 weeks in Bath, England, United Kingdom

Now
61 °F

Scattered showers. Scattered clouds.


Feels Like: 61 °F
Forecast: 53 / 75 °F
Wind: 9 mph from Southwest

Location: Bristol / Lulsgate

Current Time: Aug 1, 2015 at 6:23:43 PM

Latest Report: Aug 1, 2015 at 5:50 PM


Visibility: N/A

Pressure: 30.01 "Hg

Humidity: 88%

Dew point: 57 °F

Location of BathLocation

Historic Weather in Bath — Graph

°F

Bath temperature yesterday

Maximum temperature yesterday: 64 °F (at 2:20 PM)
Minimum temperature yesterday: 43 °F (at 5:20 AM)
Average temperature yesterday: 55 °F

Past Weeks' High & Low Weather Summary

 TemperatureHumidityPressure
High68 °F (Jul 20, 12:50 PM)100% (Jul 20, 8:20 AM)30.15 "Hg (Jul 20, 8:20 AM)
Low43 °F (Jul 31, 5:20 AM)35% (Jul 19, 4:20 PM)29.45 "Hg (Jul 26, 3:20 PM)
Average57 °F80%29.90 "Hg
* Reported Jul 17 5:20 PM — Aug 1 5:20 PM, Bath, Weather by CustomWeather, © 2015

Note: Actual official high and low records may vary slightly from our data, if they occured in-between our weather recording intervals... More about our weather records

Advertising

Bath weather history for previous 24 hours

 ConditionsComfort  
Time TempWeatherWind HumidityBarometerVisibility
5:20 PM
Sat, Aug 1
59 °FScattered showers. Scattered clouds.8 mph94%30.04 "HgN/A
4:50 PM61 °FScattered clouds.9 mph83%30.04 "HgN/A
4:20 PM59 °FScattered showers. Scattered clouds.7 mph88%30.04 "HgN/A
3:50 PM57 °FScattered showers. Scattered clouds.7 mph94%30.04 "HgN/A
3:20 PM59 °FScattered showers. Scattered clouds.8 mph82%30.04 "HgN/A
2:50 PM59 °FScattered showers. Scattered clouds.8 mph82%30.04 "HgN/A
2:20 PM61 °FScattered showers. Scattered clouds.9 mph72%30.01 "HgN/A
1:50 PM59 °FScattered showers. Partly sunny.7 mph77%30.01 "HgN/A
1:20 PM59 °FPartly sunny.7 mph77%30.04 "HgN/A
12:50 PM59 °FScattered clouds.10 mph77%30.04 "HgN/A
12:20 PM59 °FScattered clouds.12 mph77%30.04 "HgN/A
11:50 AM59 °FScattered clouds.10 mph77%30.01 "HgN/A
11:20 AM57 °FPartly sunny.9 mph82%30.01 "HgN/A
10:50 AM57 °FBroken clouds.8 mph82%30.01 "HgN/A
10:20 AM57 °FPartly sunny.9 mph77%30.01 "HgN/A
9:50 AM55 °FPassing clouds.8 mph82%30.01 "HgN/A
9:20 AM55 °FPassing clouds.8 mph82%30.01 "HgN/A
8:50 AM55 °FPassing clouds.7 mph82%30.01 "HgN/A
8:20 AM54 °FPassing clouds.6 mph88%30.01 "HgN/A
7:50 AM54 °FPassing clouds.7 mph82%29.98 "HgN/A
7:20 AM54 °FPassing clouds.5 mph82%29.98 "HgN/A
6:50 AM52 °FPassing clouds.5 mph88%29.98 "HgN/A
6:20 AM50 °FPassing clouds.5 mph88%29.98 "HgN/A
5:50 AM50 °FPassing clouds.5 mph88%29.98 "HgN/A
5:20 AM50 °FPassing clouds.5 mph88%29.98 "HgN/A
4:50 AM50 °FPassing clouds.5 mph88%29.98 "HgN/A
4:20 AM50 °FPassing clouds.6 mph88%29.98 "HgN/A
3:50 AM50 °FPassing clouds.6 mph88%30.01 "HgN/A
3:20 AM50 °FPassing clouds.5 mph88%30.01 "HgN/A
2:50 AM50 °FPassing clouds.6 mph94%30.01 "HgN/A
2:20 AM52 °FClear.6 mph88%30.01 "Hg10 mi
1:50 AM52 °FPassing clouds.6 mph88%30.01 "HgN/A
1:20 AM52 °FPassing clouds.6 mph88%30.01 "HgN/A
12:50 AM52 °FPassing clouds.5 mph88%30.01 "HgN/A
12:20 AM52 °FClear.6 mph82%30.01 "Hg10 mi
11:50 PM
Fri, Jul 31
52 °FClear.10 mph82%30.01 "Hg10 mi
11:20 PM52 °FClear.9 mph82%30.04 "Hg10 mi
10:50 PM52 °FClear.10 mph82%30.01 "Hg10 mi
10:20 PM52 °FClear.9 mph82%30.01 "Hg10 mi
9:50 PM54 °FSunny.9 mph77%30.01 "Hg10 mi
9:20 PM54 °FPassing clouds.10 mph77%30.01 "HgN/A
8:50 PM55 °FPassing clouds.8 mph72%30.01 "HgN/A
8:20 PM57 °FPassing clouds.9 mph72%30.01 "HgN/A
7:50 PM57 °FPassing clouds.9 mph72%30.01 "HgN/A
7:20 PM59 °FPassing clouds.12 mph68%30.01 "HgN/A
6:50 PM61 °FSunny.12 mph63%30.01 "Hg10 mi
6:20 PM63 °FPassing clouds.12 mph59%30.01 "HgN/A
Weather by CustomWeather, © 2015

See weather overviewHow to use our weather pages